Location: Poughquag
(41.6090°N, 73.6820°W)
Time: 07:57:28
(UTC-05:00)

DIWATA 2B (PO-101) - Pass Details

Date: 13 November 2025
Orbit: 563 x 574 km, 98.1° (Epoch: 07 December)

Event Time Altitude Azimuth Distance (km) Brightness Sun altitude
Rises 05:11:03 0° 168° (SSE) 2,763 ? -17.0°
Reaches altitude 10° 05:13:11 10° 169° (S) 1,869 ? -16.6°
Maximum altitude 05:17:14 82° 255° (WSW) 581 ? -15.9°
Drops below altitude 10° 05:21:19 10° 345° (NNW) 1,877 ? -15.1°
Enters shadow 05:23:26 - 347° (NNW) 2,766 ? -14.7°
